EW5239 Weather Reports


Display with metric or nautical units.
time (UTC)temp
F
wind
direction
speed
MPH
gust
MPH
rain 1hr
in
rain 24hr
in
rain mn
in
humidity
%
barometer
mb
20260831110004 74 199 5.0 9.0 0.00 0.00 0.00 72 1011.9
20260831110000 73 181 5.0 14.0 0.00 0.00 0.00 71 1013.5
20260831105504 74 184 5.0 8.0 0.00 0.00 0.00 71 1011.8
20260831105454 74 168 6.0 8.0 0.00 0.00 0.00 70 1013.6
20260831105004 74 177 5.0 8.0 0.00 0.00 0.00 71 1011.8
20260831104505 74 190 3.0 7.0 0.00 0.00 0.00 71 1011.9
20260831104454 74 186 4.0 8.0 0.00 0.00 0.00 70 1013.4
20260831104004 74 200 2.0 4.0 0.00 0.00 0.00 70 1011.8
20260831103954 74 184 3.0 4.0 0.00 0.00 0.00 69 1013.6
20260831103504 74 185 2.0 4.0 0.00 0.00 0.00 70 1011.8
20260831103454 74 189 3.0 4.0 0.00 0.00 0.00 69 1013.7
20260831103004 74 194 2.0 4.0 0.00 0.00 0.00 70 1011.8
20260831102954 74 202 3.0 4.0 0.00 0.00 0.00 68 1013.5
20260831102454 74 196 3.0 4.0 0.00 0.00 0.00 68 1013.5
20260831102004 74 209 3.0 4.0 0.00 0.00 0.00 69 1011.8
20260831101954 74 192 3.0 4.0 0.00 0.00 0.00 67 1013.7
20260831101504 74 197 3.0 5.0 0.00 0.00 0.00 69 1011.8
20260831101454 74 205 3.0 5.0 0.00 0.00 0.00 67 1013.5
20260831101004 74 208 4.0 5.0 0.00 0.00 0.00 68 1011.7
20260831100954 75 213 3.0 5.0 0.00 0.00 0.00 67 1013.5
20260831100504 74 226 3.0 4.0 0.00 0.00 0.00 68 1011.7
20260831100454 75 217 3.0 4.0 0.00 0.00 0.00 67 1013.4
20260831100001 75 207 3.0 4.0 0.00 0.00 0.00 66 1013.4
20260831095504 75 209 3.0 4.0 0.00 0.00 0.00 69 1011.7
20260831095454 75 194 3.0 4.0 0.00 0.00 0.00 67 1013.5
20260831095004 75 220 3.0 7.0 0.00 0.00 0.00 68 1011.6
20260831094954 75 201 3.0 6.0 0.00 0.00 0.00 66 1013.3
20260831094504 75 220 3.0 7.0 0.00 0.00 0.00 69 1011.7
20260831094454 75 209 3.0 6.0 0.00 0.00 0.00 66 1013.4
20260831093954 75 192 2.0 5.0 0.00 0.00 0.00 68 1013.2
20260831093504 74 225 1.0 4.0 0.00 0.00 0.00 71 1011.7
20260831093454 75 183 2.0 5.0 0.00 0.00 0.00 68 1013.3
20260831092954 74 207 2.0 4.0 0.00 0.00 0.00 71 1013.1
20260831092504 74 251 0.0 2.0 0.00 0.00 0.00 74 1011.6
20260831092454 74 238 2.0 4.0 0.00 0.00 0.00 72 1013.4
20260831091954 74 259 2.0 3.0 0.00 0.00 0.00 71 1013.7
20260831091504 74 246 2.0 3.0 0.00 0.00 0.00 71 1011.8
20260831091455 74 243 2.0 3.0 0.00 0.00 0.00 69 1013.6
20260831091004 74 236 2.0 4.0 0.00 0.00 0.00 70 1011.8
20260831090504 74 229 3.0 4.0 0.00 0.00 0.00 68 1012.0
20260831090454 75 214 3.0 3.0 0.00 0.00 0.00 66 1013.6
20260831090005 74 231 2.0 3.0 0.00 0.00 0.00 68 1011.8
20260831090001 75 222 3.0 3.0 0.00 0.00 0.00 66 1013.5
20260831085504 75 224 2.0 4.0 0.00 0.00 0.00 67 1011.8
20260831085454 75 201 3.0 4.0 0.00 0.00 0.00 65 1013.6
20260831084954 75 189 3.0 5.0 0.00 0.00 0.00 65 1013.4
20260831084504 75 200 3.0 5.0 0.00 0.00 0.00 66 1011.9
20260831084454 75 192 3.0 5.0 0.00 0.00 0.00 64 1013.4
20260831084005 75 194 4.0 6.0 0.00 0.00 0.00 66 1011.9
20260831083504 75 201 3.0 6.0 0.00 0.00 0.00 66 1011.8
20260831083454 75 187 3.0 6.0 0.00 0.00 0.00 62 1013.3
20260831082954 75 175 3.0 5.0 0.00 0.00 0.00 62 1013.5
20260831082004 75 200 3.0 5.0 0.00 0.00 0.00 65 1011.9
20260831081954 75 220 4.0 5.0 0.00 0.00 0.00 61 1013.4
20260831081504 74 205 4.0 5.0 0.00 0.00 0.00 65 1011.7
20260831081454 75 206 4.0 6.0 0.00 0.00 0.00 61 1013.5
20260831081004 74 194 5.0 5.0 0.00 0.00 0.00 65 1011.8
20260831080954 75 201 4.0 6.0 0.00 0.00 0.00 61 1013.5
20260831080504 74 189 5.0 6.0 0.00 0.00 0.00 65 1011.8
20260831080454 75 216 5.0 7.0 0.00 0.00 0.00 62 1013.6
20260831080005 74 198 5.0 6.0 0.00 0.00 0.00 65 1011.6
20260831080000 74 206 5.0 7.0 0.00 0.00 0.00 61 1013.3
20260831075503 74 210 4.0 6.0 0.00 0.00 0.00 66 1012.0
20260831075454 74 216 4.0 7.0 0.00 0.00 0.00 62 1013.3
20260831074953 74 232 3.0 7.0 0.00 0.00 0.00 64 1013.2
20260831074504 73 185 3.0 5.0 0.00 0.00 0.00 67 1011.8
20260831074454 74 175 3.0 5.0 0.00 0.00 0.00 64 1013.5
20260831074004 73 182 3.0 5.0 0.00 0.00 0.00 67 1011.7
20260831073954 74 192 3.0 5.0 0.00 0.00 0.00 63 1013.3
20260831073504 73 204 3.0 4.0 0.00 0.00 0.00 67 1011.7
20260831073454 74 209 4.0 4.0 0.00 0.00 0.00 63 1013.6
20260831073004 73 222 3.0 4.0 0.00 0.00 0.00 69 1011.6
20260831072954 73 211 3.0 4.0 0.00 0.00 0.00 65 1013.4
20260831072504 73 190 3.0 3.0 0.00 0.00 0.00 72 1011.7
20260831072454 73 183 3.0 3.0 0.00 0.00 0.00 69 1013.4
20260831071954 72 165 3.0 3.0 0.00 0.00 0.00 71 1013.3
20260831071504 72 200 2.0 3.0 0.00 0.00 0.00 73 1011.9
20260831071454 72 147 2.0 3.0 0.00 0.00 0.00 71 1013.4
20260831071004 71 172 3.0 4.0 0.00 0.00 0.00 75 1011.7
20260831070954 71 154 3.0 5.0 0.00 0.00 0.00 74 1013.3
20260831070503 71 176 4.0 5.0 0.00 0.00 0.00 76 1011.7
20260831070454 71 165 4.0 7.0 0.00 0.00 0.00 73 1013.5
20260831070000 71 179 4.0 7.0 0.00 0.00 0.00 74 1013.5
20260831065504 69 183 4.0 6.0 0.00 0.00 0.00 81 1011.8
20260831065004 69 170 2.0 4.0 0.00 0.00 0.00 84 1011.7
20260831064954 69 162 2.0 4.0 0.00 0.00 0.00 85 1013.5
20260831064454 68 184 2.0 4.0 0.00 0.00 0.00 88 1013.6
20260831064004 68 149 2.0 3.0 0.00 0.00 0.00 87 1012.0
20260831063954 67 160 2.0 3.0 0.00 0.00 0.00 91 1013.7
20260831063503 67 130 2.0 3.0 0.00 0.00 0.00 88 1011.9
20260831063454 67 144 3.0 4.0 0.00 0.00 0.00 92 1013.7
20260831062504 66 158 2.0 4.0 0.00 0.00 0.00 90 1012.0
20260831062454 66 152 2.0 4.0 0.00 0.00 0.00 96 1013.7
20260831061954 65 162 2.0 3.0 0.00 0.00 0.00 97 1014.0
20260831061503 65 174 2.0 3.0 0.00 0.00 0.00 91 1012.1
20260831061454 64 168 3.0 4.0 0.00 0.00 0.00 97 1013.8
20260831061004 64 174 1.0 3.0 0.00 0.00 0.00 92 1012.1
20260831060955 64 175 2.0 4.0 0.00 0.00 0.00 97 1014.1
20260831060504 64 0 0.0 0.0 0.00 0.00 0.00 93 1012.1
20260831060454 63 173 1.0 2.0 0.00 0.00 0.00 97 1013.9
20260831060000 62 165 1.0 2.0 0.00 0.00 0.00 98 1013.9
20260831055504 64 175 1.0 3.0 0.00 0.00 0.00 93 1012.0
20260831055454 62 172 2.0 3.0 0.00 0.00 0.00 98 1014.1
20260831054504 63 181 0.0 3.0 0.00 0.00 0.00 95 1011.9
20260831054454 60 150 2.0 3.0 0.00 0.00 0.00 99 1013.9
20260831054004 62 0 0.0 0.0 0.00 0.00 0.00 96 1012.0
20260831053454 59 125 1.0 2.0 0.00 0.00 0.00 99 1013.9
20260831053004 60 0 0.0 0.0 0.00 0.00 0.00 96 1011.9
20260831052955 58 122 1.0 2.0 0.00 0.00 0.00 99 1014.0
20260831052503 58 0 0.0 0.0 0.00 0.00 0.00 97 1011.9
20260831052454 58 169 1.0 2.0 0.00 0.00 0.00 99 1013.9
20260831051955 58 177 1.0 2.0 0.00 0.00 0.00 99 1013.8
20260831051504 58 0 0.0 0.0 0.00 0.00 0.00 96 1011.9
20260831051454 58 135 0.0 2.0 0.00 0.00 0.00 99 1013.9
20260831050954 57 125 1.0 2.0 0.00 0.00 0.00 99 1013.9
20260831050504 58 0 0.0 0.0 0.00 0.00 0.00 96 1011.7
20260831050455 57 118 1.0 2.0 0.00 0.00 0.00 99 1013.9
20260831050000 57 135 0.0 1.0 0.00 0.00 0.00 99 1013.9
20260831045504 57 0 0.0 0.0 0.00 0.00 0.00 97 1011.9
20260831045455 57 98 0.0 2.0 0.00 0.00 0.00 99 1014.1
20260831045004 57 0 0.0 0.0 0.00 0.00 0.00 97 1011.9
20260831044954 57 98 0.0 2.0 0.00 0.00 0.00 99 1013.9
20260831044504 57 0 0.0 0.0 0.00 0.00 0.00 97 1011.9
20260831044004 57 0 0.0 0.0 0.00 0.00 0.00 97 1011.9
20260831043504 57 0 0.0 0.0 0.00 0.00 0.00 97 1012.0
20260831043004 57 0 0.0 0.0 0.00 0.00 0.00 97 1011.9
20260831042954 56 105 0.0 2.0 0.00 0.00 0.00 99 1014.1
20260831042503 57 0 0.0 0.0 0.00 0.00 0.00 97 1012.1
20260831042455 56 90 0.0 1.0 0.00 0.00 0.00 99 1014.0
20260831042004 56 0 0.0 0.0 0.00 0.00 0.00 96 1012.1
20260831041954 56 0 0.0 0.0 0.00 0.00 0.00 99 1014.0
20260831041504 56 0 0.0 0.0 0.00 0.00 0.00 96 1012.0
20260831041003 56 0 0.0 0.0 0.00 0.00 0.00 96 1012.0
20260831040954 56 0 0.0 0.0 0.00 0.00 0.00 99 1014.0
20260831040504 56 0 0.0 0.0 0.00 0.00 0.00 96 1011.9
20260831040454 56 90 0.0 1.0 0.00 0.00 0.00 99 1014.2
20260831040004 56 0 0.0 0.0 0.00 0.00 0.00 96 1012.1
20260831040001 56 90 0.0 2.0 0.00 0.00 0.00 99 1014.1
20260831035504 56 90 0.0 2.0 0.00 0.00 0.00 96 1012.0
20260831035454 56 85 1.0 2.0 0.00 0.00 0.00 99 1014.1
20260831035004 56 90 0.0 2.0 0.00 0.00 0.00 96 1012.2
20260831034955 56 86 1.0 2.0 0.00 0.00 0.00 99 1014.1
20260831034504 56 0 0.0 0.0 0.00 0.00 0.00 96 1012.1
20260831034455 56 94 0.0 2.0 0.00 0.00 0.00 98 1014.4
20260831034004 56 225 0.0 2.0 0.00 0.00 0.00 96 1012.0
20260831033955 56 171 0.0 2.0 0.00 0.00 0.00 98 1014.0
20260831033504 56 234 1.0 2.0 0.00 0.00 0.00 96 1012.2
20260831033455 55 214 1.0 2.0 0.00 0.00 0.00 98 1014.3
20260831033004 56 238 0.0 2.0 0.00 0.00 0.00 96 1012.0
20260831032954 56 220 1.0 2.0 0.00 0.00 0.00 98 1014.3
20260831032503 56 0 0.0 0.0 0.00 0.00 0.00 96 1012.1
20260831032003 56 0 0.0 0.0 0.00 0.00 0.00 96 1012.1
20260831031954 56 225 1.0 2.0 0.00 0.00 0.00 98 1013.9
20260831031455 56 0 0.0 0.0 0.00 0.00 0.00 98 1014.1
20260831031004 57 0 0.0 0.0 0.00 0.00 0.00 96 1012.0
20260831030503 57 0 0.0 0.0 0.00 0.00 0.00 96 1011.9
20260831030455 57 0 0.0 0.0 0.00 0.00 0.00 98 1014.0
20260831030004 57 0 0.0 0.0 0.00 0.00 0.00 95 1011.9
20260831030001 57 45 0.0 1.0 0.00 0.00 0.00 98 1013.9
20260831025504 57 0 0.0 0.0 0.00 0.00 0.00 95 1012.0
20260831025455 57 83 1.0 2.0 0.00 0.00 0.00 97 1013.9
20260831024503 57 135 0.0 2.0 0.00 0.00 0.00 95 1011.9
20260831024004 57 135 0.0 2.0 0.00 0.00 0.00 95 1011.9
20260831023504 57 0 0.0 0.0 0.00 0.00 0.00 95 1012.1
20260831023455 57 121 0.0 2.0 0.00 0.00 0.00 97 1013.9
20260831023003 57 0 0.0 0.0 0.00 0.00 0.00 95 1012.0
20260831022955 57 0 0.0 0.0 0.00 0.00 0.00 97 1014.0
20260831022455 57 0 0.0 0.0 0.00 0.00 0.00 96 1014.0
20260831022004 57 0 0.0 0.0 0.00 0.00 0.00 94 1012.2
20260831021955 57 0 0.0 0.0 0.00 0.00 0.00 96 1014.3
20260831021503 57 0 0.0 0.0 0.00 0.00 0.00 94 1012.1
20260831021455 57 90 0.0 1.0 0.00 0.00 0.00 96 1014.0
20260831021004 57 0 0.0 0.0 0.00 0.00 0.00 94 1012.1
20260831020954 57 90 0.0 2.0 0.00 0.00 0.00 96 1014.1
20260831020504 57 0 0.0 0.0 0.00 0.00 0.00 94 1012.2
20260831020455 57 90 0.0 2.0 0.00 0.00 0.00 96 1014.3
20260831020003 57 0 0.0 0.0 0.00 0.00 0.00 94 1012.1
20260831020001 57 90 0.0 2.0 0.00 0.00 0.00 96 1014.3
20260831015455 58 90 1.0 2.0 0.00 0.00 0.00 96 1014.3
20260831015004 58 0 0.0 0.0 0.00 0.00 0.00 94 1012.5
20260831014955 57 90 0.0 2.0 0.00 0.00 0.00 95 1014.4
20260831014504 57 0 0.0 0.0 0.00 0.00 0.00 94 1012.3
20260831014455 57 112 0.0 1.0 0.00 0.00 0.00 95 1014.2
20260831014004 57 0 0.0 0.0 0.00 0.00 0.00 94 1012.3
20260831013955 57 135 0.0 1.0 0.00 0.00 0.00 96 1014.5
20260831013504 57 0 0.0 0.0 0.00 0.00 0.00 93 1012.4
20260831013455 57 0 0.0 0.0 0.00 0.00 0.00 96 1014.3
20260831013003 57 0 0.0 0.0 0.00 0.00 0.00 93 1012.4
20260831012955 57 18 0.0 8.0 0.00 0.00 0.00 96 1014.3
20260831012503 57 0 0.0 0.0 0.00 0.00 0.00 93 1012.3
20260831012455 57 10 0.0 8.0 0.00 0.00 0.00 95 1014.2
20260831011955 57 135 0.0 1.0 0.00 0.00 0.00 95 1014.4
20260831011504 58 0 0.0 0.0 0.00 0.00 0.00 94 1012.4
20260831011004 58 0 0.0 0.0 0.00 0.00 0.00 93 1012.2
20260831010956 58 135 0.0 1.0 0.00 0.00 0.00 94 1014.3
20260831010504 58 0 0.0 0.0 0.00 0.00 0.00 93 1012.3
20260831010455 58 0 0.0 0.0 0.00 0.00 0.00 94 1014.1
20260831010004 58 0 0.0 0.0 0.00 0.00 0.00 93 1012.1
20260831010001 58 0 0.0 0.0 0.00 0.00 0.00 94 1014.0
20260831005504 58 0 0.0 0.0 0.00 0.00 0.00 93 1012.2
20260831005455 58 286 0.0 2.0 0.00 0.00 0.00 94 1014.4
20260831005003 58 0 0.0 0.0 0.00 0.00 0.00 93 1012.3
20260831004955 58 291 0.0 2.0 0.00 0.00 0.00 94 1014.2
20260831004504 59 0 0.0 0.0 0.00 0.00 0.00 93 1012.4
20260831004458 59 46 0.0 1.0 0.00 0.00 0.00 94 1014.5
20260831004004 59 0 0.0 0.0 0.00 0.00 0.00 93 1012.5
20260831003956 59 135 0.0 1.0 0.00 0.00 0.00 94 1014.3
20260831003503 59 0 0.0 0.0 0.00 0.00 0.00 93 1012.4
20260831003455 58 135 0.0 1.0 0.00 0.00 0.00 94 1014.5
20260831003004 58 0 0.0 0.0 0.00 0.00 0.00 93 1012.6
20260831002955 58 0 0.0 0.0 0.00 0.00 0.00 94 1014.5
20260831002504 58 0 0.0 0.0 0.00 0.00 0.00 92 1012.5
20260831002004 59 0 0.0 0.0 0.00 0.00 0.00 92 1012.6
20260831001955 58 0 0.0 0.0 0.00 0.00 0.00 94 1014.6
20260831001504 58 0 0.0 0.0 0.00 0.00 0.00 92 1012.6
20260831001455 59 0 0.0 0.0 0.00 0.00 0.00 93 1014.3
20260831001004 59 0 0.0 0.0 0.00 0.00 0.00 92 1012.6
20260831000455 59 0 0.0 0.0 0.00 0.00 0.00 93 1014.5
20260831000003 59 0 0.0 0.0 0.00 0.00 0.00 92 1012.5
20260831000001 59 0 0.0 0.0 0.00 0.00 0.00 92 1014.4
20260830235504 59 0 0.0 0.0 0.00 0.00 0.00 91 1012.6
20260830235456 59 0 0.0 0.0 0.00 0.00 0.00 92 1014.5
20260830235004 59 0 0.0 0.0 0.00 0.00 0.00 91 1012.6
20260830234955 59 0 0.0 0.0 0.00 0.00 0.00 92 1014.4
20260830234503 59 0 0.0 0.0 0.00 0.00 0.00 91 1012.4
20260830234455 59 0 0.0 0.0 0.00 0.00 0.00 92 1014.5
20260830234004 59 0 0.0 0.0 0.00 0.00 0.00 91 1012.5
20260830233955 59 0 0.0 0.0 0.00 0.00 0.00 92 1014.4
20260830233504 59 0 0.0 0.0 0.00 0.00 0.00 90 1012.6
20260830233455 60 0 0.0 0.0 0.00 0.00 0.00 92 1014.4
20260830232955 60 135 0.0 1.0 0.00 0.00 0.00 92 1014.5
20260830232503 59 0 0.0 0.0 0.00 0.00 0.00 90 1012.7
20260830232455 60 135 0.0 1.0 0.00 0.00 0.00 92 1014.4
20260830232004 59 0 0.0 0.0 0.00 0.00 0.00 90 1012.7
20260830231956 60 169 0.0 1.0 0.00 0.00 0.00 91 1014.5
20260830231504 59 0 0.0 0.0 0.00 0.00 0.00 89 1012.7
20260830231455 60 174 1.0 2.0 0.00 0.00 0.00 91 1014.7
20260830231003 59 0 0.0 0.0 0.00 0.00 0.00 89 1012.6
20260830230956 59 181 0.0 2.0 0.00 0.00 0.00 90 1014.5
20260830230504 59 0 0.0 0.0 0.00 0.00 0.00 89 1012.6
20260830230455 59 225 0.0 1.0 0.00 0.00 0.00 90 1014.5
20260830230002 59 225 0.0 1.0 0.00 0.00 0.00 90 1014.5
20260830225503 60 0 0.0 0.0 0.00 0.00 0.00 89 1012.8
20260830225456 59 0 0.0 0.0 0.00 0.00 0.00 89 1014.7
20260830225004 60 0 0.0 0.0 0.00 0.00 0.00 89 1012.6
20260830224955 60 0 0.0 0.0 0.00 0.00 0.00 89 1014.7
20260830224504 60 0 0.0 0.0 0.00 0.00 0.00 88 1012.7
20260830224456 60 165 0.0 1.0 0.00 0.00 0.00 89 1014.5
20260830224003 60 0 0.0 0.0 0.00 0.00 0.00 88 1012.7
20260830223955 60 169 1.0 2.0 0.00 0.00 0.00 89 1014.6
20260830223503 60 0 0.0 0.0 0.00 0.00 0.00 88 1012.8
20260830223455 60 166 1.0 2.0 0.00 0.00 0.00 89 1014.6
20260830223004 60 0 0.0 0.0 0.00 0.00 0.00 88 1012.8
20260830222956 60 141 0.0 2.0 0.00 0.00 0.00 88 1014.7
20260830222504 60 0 0.0 0.0 0.00 0.00 0.00 88 1012.6
20260830222455 60 163 1.0 2.0 0.00 0.00 0.00 88 1014.6
20260830222004 60 0 0.0 0.0 0.00 0.00 0.00 88 1012.7
20260830221503 60 0 0.0 0.0 0.00 0.00 0.00 87 1012.5
20260830221456 60 0 0.0 0.0 0.00 0.00 0.00 88 1014.7
20260830221003 61 0 0.0 0.0 0.00 0.00 0.00 87 1012.5
20260830220955 61 171 0.0 2.0 0.00 0.00 0.00 87 1014.3
20260830220504 61 0 0.0 0.0 0.00 0.00 0.00 86 1012.5
20260830220455 61 169 0.0 2.0 0.00 0.00 0.00 86 1014.5
20260830220005 61 0 0.0 0.0 0.00 0.00 0.00 86 1012.6
20260830215503 61 0 0.0 0.0 0.00 0.00 0.00 86 1012.6
20260830215455 61 135 0.0 1.0 0.00 0.00 0.00 86 1014.5
20260830214455 61 176 1.0 2.0 0.00 0.00 0.00 85 1014.4
20260830214003 61 1 0.0 2.0 0.00 0.00 0.00 85 1012.6
20260830213956 61 181 1.0 2.0 0.00 0.00 0.00 85 1014.4
20260830213504 61 1 0.0 2.0 0.00 0.00 0.00 84 1012.6
20260830213455 62 181 1.0 2.0 0.00 0.00 0.00 84 1014.4
20260830213004 61 0 0.0 0.0 0.00 0.00 0.00 84 1012.5
20260830212957 62 181 0.0 1.0 0.00 0.00 0.00 84 1014.5
20260830212503 62 0 0.0 0.0 0.00 0.00 0.00 84 1012.5
20260830212455 62 0 0.0 0.0 0.00 0.00 0.00 84 1014.5
20260830212003 62 0 0.0 0.0 0.00 0.00 0.00 84 1012.6
20260830211956 62 0 0.0 0.0 0.00 0.00 0.00 83 1014.3
20260830211504 62 0 0.0 0.0 0.00 0.00 0.00 84 1012.3
20260830211456 62 0 0.0 0.0 0.00 0.00 0.00 83 1014.2
20260830211003 62 0 0.0 0.0 0.00 0.00 0.00 84 1012.5
20260830210955 63 0 0.0 0.0 0.00 0.00 0.00 82 1014.2
20260830210503 63 0 0.0 0.0 0.00 0.00 0.00 83 1012.5
20260830210456 63 0 0.0 0.0 0.00 0.00 0.00 82 1014.4
20260830210001 63 0 0.0 0.0 0.00 0.00 0.00 82 1014.3
20260830205504 63 0 0.0 0.0 0.00 0.00 0.00 83 1012.3
20260830205003 63 1 0.0 1.0 0.00 0.00 0.00 82 1012.3
20260830204955 63 149 1.0 2.0 0.00 0.00 0.00 82 1014.2
20260830204456 63 116 1.0 2.0 0.00 0.00 0.00 82 1014.2
20260830204003 63 1 0.0 1.0 0.00 0.00 0.00 82 1012.3
20260830203503 63 1 0.0 1.0 0.00 0.00 0.00 82 1012.3
20260830202956 64 112 0.0 1.0 0.00 0.00 0.00 80 1014.3
20260830202503 64 0 0.0 0.0 0.00 0.00 0.00 81 1012.4
20260830202003 64 0 0.0 0.0 0.00 0.00 0.00 81 1012.3
20260830201957 64 1 0.0 1.0 0.00 0.00 0.00 78 1014.2
20260830201456 65 140 0.0 2.0 0.00 0.00 0.00 77 1014.2
20260830200956 65 137 1.0 2.0 0.00 0.00 0.00 77 1014.2
20260830200503 65 0 0.0 0.0 0.00 0.00 0.00 79 1012.3
20260830200003 65 0 0.0 0.0 0.00 0.00 0.00 79 1012.3
20260830195503 65 181 0.0 1.0 0.00 0.00 0.00 78 1012.3
20260830195004 65 181 0.0 1.0 0.00 0.00 0.00 77 1012.4
20260830194956 66 159 1.0 2.0 0.00 0.00 0.00 75 1014.2
20260830194503 65 0 0.0 0.0 0.00 0.00 0.00 77 1012.2
20260830194455 66 0 0.0 0.0 0.00 0.00 0.00 75 1014.1
20260830194003 65 0 0.0 0.0 0.00 0.00 0.00 76 1012.2
20260830193503 66 0 0.0 0.0 0.00 0.00 0.00 76 1012.3
20260830193456 67 0 0.0 0.0 0.00 0.00 0.00 72 1014.3
20260830193003 66 0 0.0 0.0 0.00 0.00 0.00 74 1012.4
20260830192956 67 0 0.0 0.0 0.00 0.00 0.00 71 1014.2
20260830192002 67 0 0.0 0.0 0.00 0.00 0.00 73 1012.2
20260830191503 67 0 0.0 0.0 0.00 0.00 0.00 72 1012.3
20260830191456 69 0 0.0 0.0 0.00 0.00 0.00 68 1014.1
20260830191003 68 0 0.0 0.0 0.00 0.00 0.00 70 1012.3
20260830190956 69 0 0.0 0.0 0.00 0.00 0.00 67 1014.0
20260830190003 69 258 0.0 1.0 0.00 0.00 0.00 68 1012.1
20260830185503 70 197 1.0 2.0 0.00 0.00 0.00 68 1012.3
20260830185002 70 181 2.0 2.0 0.00 0.00 0.00 66 1012.1
20260830184956 71 178 2.0 3.0 0.00 0.00 0.00 64 1014.1
20260830184503 70 177 2.0 4.0 0.00 0.00 0.00 66 1012.2
20260830184456 71 184 3.0 4.0 0.00 0.00 0.00 64 1013.9
20260830184003 71 175 3.0 4.0 0.00 0.00 0.00 66 1012.1
20260830183956 71 175 3.0 4.0 0.00 0.00 0.00 63 1014.0
20260830183502 71 177 3.0 4.0 0.00 0.00 0.00 65 1012.1
20260830183456 72 174 3.0 4.0 0.00 0.00 0.00 62 1014.1
20260830183003 71 181 3.0 4.0 0.00 0.00 0.00 65 1012.0
20260830182956 72 181 3.0 4.0 0.00 0.00 0.00 62 1014.1
20260830182503 71 181 3.0 4.0 0.00 0.00 0.00 65 1012.1
20260830182456 72 177 3.0 4.0 0.00 0.00 0.00 62 1014.0
20260830182002 71 181 2.0 4.0 0.00 0.00 0.00 64 1012.1
20260830181956 72 174 2.0 4.0 0.00 0.00 0.00 62 1013.7
20260830181502 72 181 0.0 2.0 0.00 0.00 0.00 63 1011.9
20260830181457 72 181 0.0 2.0 0.00 0.00 0.00 62 1013.8
20260830180502 73 270 0.0 1.0 0.00 0.00 0.00 61 1011.8
20260830180456 74 181 0.0 1.0 0.00 0.00 0.00 59 1013.5
20260830180002 74 181 1.0 2.0 0.00 0.00 0.00 59 1013.5
20260830175502 74 193 1.0 3.0 0.00 0.00 0.00 59 1011.7
20260830175456 74 181 2.0 3.0 0.00 0.00 0.00 57 1013.5
20260830175002 74 181 2.0 3.0 0.00 0.00 0.00 58 1011.6
20260830174502 74 183 1.0 2.0 0.00 0.00 0.00 57 1011.5
20260830174002 75 220 2.0 3.0 0.00 0.00 0.00 57 1011.5
20260830173956 75 171 1.0 4.0 0.00 0.00 0.00 55 1013.4
20260830173502 75 255 1.0 3.0 0.00 0.00 0.00 57 1011.5
20260830173456 75 189 2.0 4.0 0.00 0.00 0.00 54 1013.2
20260830172502 75 194 2.0 4.0 0.00 0.00 0.00 58 1011.4
20260830172456 75 191 3.0 5.0 0.00 0.00 0.00 54 1013.3
20260830172001 75 186 2.0 3.0 0.00 0.00 0.00 57 1011.3
20260830171957 75 191 2.0 3.0 0.00 0.00 0.00 54 1013.3
20260830171456 75 188 2.0 3.0 0.00 0.00 0.00 54 1013.1
20260830171002 75 209 1.0 3.0 0.00 0.00 0.00 58 1011.4
20260830170956 76 195 1.0 3.0 0.00 0.00 0.00 55 1013.2
20260830170502 76 185 2.0 3.0 0.00 0.00 0.00 55 1011.5
20260830170456 76 182 2.0 3.0 0.00 0.00 0.00 52 1013.2
20260830170002 76 181 2.0 3.0 0.00 0.00 0.00 54 1011.3
20260830165502 76 181 1.0 3.0 0.00 0.00 0.00 54 1011.2
20260830165002 76 181 2.0 3.0 0.00 0.00 0.00 54 1011.3
20260830164957 76 181 2.0 3.0 0.00 0.00 0.00 51 1013.3
20260830164502 76 181 2.0 3.0 0.00 0.00 0.00 54 1011.4
20260830164002 76 188 1.0 2.0 0.00 0.00 0.00 54 1011.4
20260830163957 77 177 1.0 2.0 0.00 0.00 0.00 51 1013.0
20260830163502 76 200 0.0 1.0 0.00 0.00 0.00 54 1011.3
20260830163456 77 167 1.0 2.0 0.00 0.00 0.00 51 1013.2
20260830163002 77 183 1.0 3.0 0.00 0.00 0.00 53 1011.3
20260830162956 77 176 1.0 3.0 0.00 0.00 0.00 50 1013.1
20260830162501 77 193 2.0 4.0 0.00 0.00 0.00 51 1011.3
20260830162457 77 177 2.0 4.0 0.00 0.00 0.00 49 1013.3
20260830162002 77 189 3.0 4.0 0.00 0.00 0.00 51 1011.3
20260830161956 77 178 3.0 4.0 0.00 0.00 0.00 49 1013.4
20260830161002 77 194 1.0 2.0 0.00 0.00 0.00 50 1011.2
20260830160502 78 215 2.0 4.0 0.00 0.00 0.00 49 1011.5
20260830160457 78 188 2.0 5.0 0.00 0.00 0.00 47 1013.1
20260830160002 78 201 2.0 5.0 0.00 0.00 0.00 47 1013.3
20260830155502 78 215 2.0 4.0 0.00 0.00 0.00 48 1011.4
20260830155457 79 205 3.0 5.0 0.00 0.00 0.00 46 1013.4
20260830155002 78 222 3.0 4.0 0.00 0.00 0.00 48 1011.3
20260830154956 79 194 3.0 5.0 0.00 0.00 0.00 45 1013.2
20260830154501 79 200 3.0 6.0 0.00 0.00 0.00 47 1011.2
20260830154457 79 195 3.0 7.0 0.00 0.00 0.00 45 1013.2
20260830153956 79 206 4.0 8.0 0.00 0.00 0.00 45 1013.3
20260830153502 79 229 4.0 8.0 0.00 0.00 0.00 47 1011.4
20260830153456 80 203 4.0 8.0 0.00 0.00 0.00 45 1013.3
20260830152456 79 223 4.0 7.0 0.00 0.00 0.00 45 1013.6
20260830151957 79 219 3.0 7.0 0.00 0.00 0.00 45 1013.5
20260830151501 79 219 4.0 6.0 0.00 0.00 0.00 46 1011.6
20260830151457 79 224 3.0 7.0 0.00 0.00 0.00 44 1013.6
20260830150502 80 219 6.0 8.0 0.00 0.00 0.00 44 1011.5
20260830150456 80 208 6.0 10.0 0.00 0.00 0.00 43 1013.4
20260830145501 80 231 6.0 10.0 0.00 0.00 0.00 45 1011.6
20260830145456 81 234 6.0 9.0 0.00 0.00 0.00 42 1013.5
20260830145002 80 214 6.0 9.0 0.00 0.00 0.00 45 1011.6
20260830144957 80 215 6.0 9.0 0.00 0.00 0.00 43 1013.4
20260830144502 80 201 5.0 9.0 0.00 0.00 0.00 45 1011.6
20260830144456 80 226 6.0 10.0 0.00 0.00 0.00 43 1013.5
20260830144002 80 214 6.0 9.0 0.00 0.00 0.00 45 1011.7
20260830143457 80 210 9.0 13.0 0.00 0.00 0.00 43 1013.5
20260830143001 80 162 10.0 14.0 0.00 0.00 0.00 44 1011.5
20260830142956 80 193 11.0 15.0 0.00 0.00 0.00 43 1013.7
20260830142502 80 174 8.0 14.0 0.00 0.00 0.00 44 1011.6
20260830142457 80 179 9.0 15.0 0.00 0.00 0.00 43 1013.7
20260830142002 80 192 8.0 14.0 0.00 0.00 0.00 44 1011.8
20260830141957 80 182 9.0 15.0 0.00 0.00 0.00 43 1013.5
20260830141501 80 186 7.0 14.0 0.00 0.00 0.00 44 1011.7
20260830141458 80 188 8.0 15.0 0.00 0.00 0.00 42 1013.5
20260830141002 80 183 6.0 8.0 0.00 0.00 0.00 45 1011.8
20260830140957 80 183 6.0 8.0 0.00 0.00 0.00 43 1013.6
20260830140502 80 177 6.0 9.0 0.00 0.00 0.00 45 1011.8
20260830140457 80 185 6.0 10.0 0.00 0.00 0.00 43 1013.7
20260830140004 80 184 7.0 12.0 0.00 0.00 0.00 43 1013.8
20260830140001 80 176 7.0 11.0 0.00 0.00 0.00 45 1011.8
20260830135502 80 188 9.0 16.0 0.00 0.00 0.00 44 1011.8
20260830135456 80 182 9.0 16.0 0.00 0.00 0.00 42 1013.9
20260830135002 80 220 8.0 16.0 0.00 0.00 0.00 43 1011.7
20260830134957 81 204 9.0 16.0 0.00 0.00 0.00 41 1013.8
20260830134502 80 270 7.0 10.0 0.00 0.00 0.00 44 1011.9
20260830133957 81 252 7.0 10.0 0.00 0.00 0.00 41 1013.8
20260830133502 80 207 8.0 11.0 0.00 0.00 0.00 44 1011.7
20260830133457 81 188 8.0 13.0 0.00 0.00 0.00 42 1013.7
20260830132957 80 173 10.0 15.0 0.00 0.00 0.00 42 1013.7
20260830132501 80 177 9.0 13.0 0.00 0.00 0.00 43 1011.7
20260830132457 80 181 10.0 15.0 0.00 0.00 0.00 42 1013.8
20260830132002 80 183 9.0 11.0 0.00 0.00 0.00 44 1011.9
20260830131956 80 183 8.0 11.0 0.00 0.00 0.00 42 1013.7
20260830131502 80 176 8.0 11.0 0.00 0.00 0.00 44 1011.9
20260830131457 80 192 8.0 11.0 0.00 0.00 0.00 42 1013.8
20260830131002 80 172 7.0 11.0 0.00 0.00 0.00 44 1011.9
20260830130957 80 194 7.0 11.0 0.00 0.00 0.00 42 1013.8
20260830130501 80 172 7.0 11.0 0.00 0.00 0.00 44 1011.9
20260830130003 81 158 7.0 11.0 0.00 0.00 0.00 41 1013.7
20260830125502 80 248 6.0 11.0 0.00 0.00 0.00 44 1011.9
20260830125457 81 203 6.0 11.0 0.00 0.00 0.00 41 1014.0
20260830125001 80 259 6.0 11.0 0.00 0.00 0.00 44 1012.0
20260830124957 81 220 7.0 11.0 0.00 0.00 0.00 41 1014.0
20260830124502 80 228 6.0 8.0 0.00 0.00 0.00 45 1012.0
20260830124457 80 211 7.0 10.0 0.00 0.00 0.00 43 1013.8
20260830124002 80 222 8.0 15.0 0.00 0.00 0.00 44 1012.0
20260830123957 80 190 9.0 16.0 0.00 0.00 0.00 42 1014.0
20260830123502 80 203 11.0 17.0 0.00 0.00 0.00 44 1012.0
20260830123457 80 202 11.0 18.0 0.00 0.00 0.00 42 1014.1
20260830123001 80 195 10.0 17.0 0.00 0.00 0.00 44 1012.1
20260830122958 80 210 10.0 18.0 0.00 0.00 0.00 42 1014.0
20260830122501 80 206 7.0 12.0 0.00 0.00 0.00 44 1012.0
20260830122458 80 218 7.0 12.0 0.00 0.00 0.00 42 1014.1
20260830122002 80 214 6.0 8.0 0.00 0.00 0.00 44 1011.9
20260830121957 81 218 6.0 9.0 0.00 0.00 0.00 42 1014.1
20260830121458 80 217 6.0 11.0 0.00 0.00 0.00 43 1014.2
20260830121001 79 195 8.0 12.0 0.00 0.00 0.00 44 1012.1
20260830120957 80 197 8.0 12.0 0.00 0.00 0.00 43 1014.2
20260830120501 79 174 9.0 12.0 0.00 0.00 0.00 44 1012.2
20260830120457 80 202 9.0 12.0 0.00 0.00 0.00 42 1014.0
20260830120004 80 228 8.0 12.0 0.00 0.00 0.00 43 1014.2
20260830120002 79 184 7.0 11.0 0.00 0.00 0.00 45 1012.1
20260830115501 79 241 7.0 10.0 0.00 0.00 0.00 45 1012.2
20260830115457 80 193 7.0 10.0 0.00 0.00 0.00 43 1014.1
20260830115002 79 241 7.0 11.0 0.00 0.00 0.00 46 1012.4
20260830114957 80 215 7.0 11.0 0.00 0.00 0.00 42 1014.1
20260830114457 79 200 10.0 17.0 0.00 0.00 0.00 43 1014.4
20260830113958 79 175 10.0 17.0 0.00 0.00 0.00 44 1014.3
20260830113502 78 200 8.0 12.0 0.00 0.00 0.00 48 1012.5
20260830113457 78 181 9.0 12.0 0.00 0.00 0.00 47 1014.3
20260830113001 78 219 10.0 12.0 0.00 0.00 0.00 47 1012.7
20260830112958 78 212 10.0 12.0 0.00 0.00 0.00 45 1014.4
20260830112502 78 245 8.0 12.0 0.00 0.00 0.00 48 1012.7
20260830112002 78 202 6.0 10.0 0.00 0.00 0.00 47 1012.6
20260830111957 80 232 6.0 10.0 0.00 0.00 0.00 43 1014.6
20260830111458 79 182 8.0 12.0 0.00 0.00 0.00 44 1014.6
20260830111001 78 210 10.0 15.0 0.00 0.00 0.00 47 1012.6
20260830110958 79 184 11.0 15.0 0.00 0.00 0.00 45 1014.7
20260830110502 78 192 10.0 15.0 0.00 0.00 0.00 47 1012.7